[[{"header":{"parameterUnit":"m.s-1","parameterCategory":1,"la1":30.2991,"la2":30.254,"lo1":-89.0895,"lo2":-89.0444,"dy":0.0017,"dx":0.0017,"nx":28,"ny":28,"refTime":"2025-05-18T21:00:00:Z","depth":0,"parameterNumber":2,"parameterNumberName":"U-component_of_WINDS"},"data":[0,0,0,0,0,0,0,0,0,0,0,0,0,0,0,0,0,0,0,0,0,0,0,0,0,0,0,0,0,0,0,0,0,0,0,0,0,0,0,0,0,0,0,0,0,0,0,0,0,0,0,0,0,0,0,0,0,0,-0.65,-0.6498,0,-0.633,-0.6328,-0.6326,-0.6236,-0.6236,-0.6236,-0.6236,-0.6059,-0.6055,-0.605,0,0,0,0,0,0,0,0,0,0,0,0,0,-0.6747,-0.6743,-0.65,-0.6498,-0.6496,-0.633,-0.6328,-0.6325,-0.6236,-0.6236,-0.6236,-0.6236,-0.6061,-0.6055,-0.605,0,0,0,0,0,0,0,0,0,0,0,0,0,-0.6615,-0.6742,-0.65,-0.6431,-0.6424,-0.633,-0.6328,-0.6325,-0.6236,-0.6236,-0.6236,-0.6236,-0.6062,-0.6056,-0.6049,-0.6011,0,0,-0.6028,-0.6025,0,0,0,0,0,0,0,0,-0.6622,-0.6606,-0.6444,-0.6436,-0.6427,-0.6304,-0.635,-0.6219,-0.6236,-0.6307,-0.6236,-0.6236,-0.6141,-0.6127,-0.6096,-0.6002,-0.5995,-0.6027,-0.6023,-0.602,-0.6018,0,0,0,0,0,0,0,-0.6631,-0.6612,-0.6433,-0.6441,-0.6431,-0.6409,-0.639,-0.6325,-0.6227,-0.6301,-0.6294,-0.6275,-0.6136,-0.6103,-0.6091,-0.5992,-0.6028,-0.6021,-0.6017,-0.6015,-0.5859,-0.5859,0,0,0,0,0,0,-0.6652,-0.6621,-0.6438,-0.6427,-0.6526,-0.6404,-0.6383,-0.6344,-0.6228,-0.621,-0.6276,-0.6272,-0.6114,-0.6099,-0.6084,-0.6032,-0.602,-0.6014,-0.601,-0.5859,-0.5859,-0.5859,0,0,0,0,0,0,-0.6658,-0.6637,-0.6445,-0.6522,-0.6496,-0.64,-0.6357,-0.634,-0.6307,-0.6208,-0.619,-0.626,-0.6114,-0.6094,-0.603,-0.6025,-0.6011,-0.6005,-0.5859,-0.5859,-0.5859,-0.5927,0,0,0,0,0,0,-0.6665,-0.6639,-0.6624,-0.6522,-0.6492,-0.6394,-0.6357,-0.6337,-0.6296,-0.6289,-0.6189,-0.6172,-0.6112,-0.6041,-0.6023,-0.6015,-0.5999,-0.5859,-0.5859,-0.5859,-0.5925,-0.5929,-0.5933,0,0,0,0,0,-0.6674,-0.6649,-0.6623,-0.6602,-0.6471,-0.6394,-0.6376,-0.6309,-0.6296,-0.6279,-0.6216,-0.6175,-0.6028,-0.6035,-0.6014,-0.6004,-0.5859,-0.5859,-0.5859,-0.5923,-0.5929,-0.5933,0,0,0,0,0,0,-0.6751,-0.6634,-0.6605,-0.6546,-0.6481,-0.6379,-0.6356,-0.6317,-0.6253,-0.6249,-0.6168,-0.6146,-0.6089,-0.604,-0.6049,-0.5961,-0.594,-0.5936,-0.5995,-0.5999,-0.6004,-0.6016,-0.5993,0,0,0,0,0,-0.6762,-0.6709,-0.661,-0.6568,-0.6536,-0.6452,-0.6416,-0.637,-0.6298,-0.627,-0.6202,-0.6134,-0.6072,-0.6033,-0.5971,-0.5918,-0.5894,-0.5901,-0.5905,-0.5909,-0.5906,-0.5874,-0.5876,-0.5859,-0.5859,-0.5859,0,0,-0.6782,-0.6712,-0.6683,-0.6581,-0.6525,-0.6472,-0.6429,-0.6375,-0.6335,-0.6261,-0.6197,-0.6145,-0.6063,-0.6005,-0.5975,-0.5962,-0.5906,-0.5909,-0.5913,-0.5907,-0.5874,-0.5876,-0.5878,-0.5859,-0.5859,-0.5859,0,0,-0.6792,-0.6734,-0.6693,-0.6638,-0.6554,-0.6498,-0.6489,-0.6392,-0.6355,-0.629,-0.6234,-0.6185,-0.608,-0.6025,-0.5983,-0.5974,-0.5933,-0.5956,-0.5977,-0.5947,-0.5948,-0.5949,-0.5946,-0.5945,-0.5953,-0.5953,-0.5953,0,-0.6828,-0.6746,-0.6676,-0.6625,-0.6582,-0.6515,-0.6472,-0.6422,-0.6322,-0.6293,-0.628,-0.6148,-0.6088,-0.6016,-0.6014,-0.5982,-0.5968,-0.5966,-0.5954,-0.5954,-0.5954,-0.5949,-0.5948,-0.5957,-0.5956,-0.5956,-0.5956,0,-0.6795,-0.6739,-0.6716,-0.6622,-0.6576,-0.653,-0.6452,-0.6414,-0.6373,-0.6319,-0.6253,-0.6179,-0.6101,-0.608,-0.6039,-0.6002,-0.5996,-0.597,-0.5946,-0.596,-0.5954,-0.5952,-0.5961,-0.596,-0.5959,-0.5958,0,0,-0.6847,-0.6716,-0.6709,-0.6665,-0.6568,-0.6524,-0.6475,-0.6399,-0.6368,-0.6302,-0.6258,-0.6172,-0.6147,-0.61,-0.6051,-0.6025,-0.6023,-0.6002,-0.5998,-0.6008,-0.5978,-0.5998,-0.5997,-0.5996,-0.5995,-0.5995,-0.5985,0,-0.6843,-0.6752,-0.6688,-0.6622,-0.6569,-0.6505,-0.6462,-0.6398,-0.6346,-0.6294,-0.6237,-0.6177,-0.6149,-0.612,-0.6092,-0.6029,-0.6016,-0.6029,-0.5954,-0.5952,-0.5976,-0.5994,-0.6015,-0.6009,-0.5982,-0.5982,-0.5981,0,-0.6826,-0.6763,-0.6692,-0.6601,-0.6576,-0.6539,-0.6465,-0.6416,-0.6342,-0.6306,-0.6255,-0.6205,-0.615,-0.6133,-0.6056,-0.6066,-0.6032,-0.5997,-0.5995,-0.5985,-0.5967,-0.5984,-0.6005,-0.6004,-0.5977,-0.5978,-0.5978,0,-0.6872,-0.6768,-0.6712,-0.6677,-0.657,-0.6545,-0.6499,-0.6425,-0.6384,-0.632,-0.6292,-0.6222,-0.6184,-0.613,-0.6063,-0.6057,-0.5993,-0.597,-0.5961,-0.5963,-0.5949,-0.5951,-0.5965,-0.5929,-0.5929,-0.5929,-0.5929,0,-0.6873,-0.6832,-0.6731,-0.6697,-0.6649,-0.6576,-0.653,-0.6479,-0.6414,-0.6368,-0.6308,-0.6266,-0.6181,-0.6128,-0.6076,-0.602,-0.6003,-0.5972,-0.5958,-0.5977,-0.5981,-0.5952,-0.5951,-0.5929,-0.5929,-0.5929,-0.5929,0,-0.6915,-0.6846,-0.6781,-0.6686,-0.6661,-0.6629,-0.6547,-0.6511,-0.6457,-0.64,-0.6382,-0.6297,-0.6232,-0.6161,-0.6072,-0.6036,-0.5984,-0.5964,-0.6009,-0.6001,-0.5996,-0.5998,-0.5992,-0.5987,-0.5955,-0.5956,-0.5956,0,-0.6921,-0.6888,-0.6789,-0.6755,-0.6711,-0.6656,-0.6614,-0.6541,-0.65,-0.6414,-0.6388,-0.6319,-0.626,-0.616,-0.609,-0.6022,-0.6,-0.6003,-0.5989,-0.6009,-0.5999,-0.6002,-0.5998,-0.6006,-0.6007,-0.6008,-0.6008,0,-0.6938,-0.6906,-0.6848,-0.6779,-0.6731,-0.6673,-0.6612,-0.6587,-0.6502,-0.6459,-0.6393,-0.6348,-0.6258,-0.619,-0.6114,-0.6065,-0.6022,-0.6013,-0.6007,-0.6026,-0.6053,-0.6038,-0.6019,-0.6013,-0.6013,-0.6012,-0.6012,-0.6012,-0.6961,-0.6929,-0.6855,-0.6793,-0.674,-0.6685,-0.6647,-0.6588,-0.6532,-0.6454,-0.6414,-0.6349,-0.6275,-0.6168,-0.6122,-0.6069,-0.6055,-0.6047,-0.6045,-0.6044,-0.6049,-0.6062,-0.6055,-0.6055,-0.6054,-0.6054,-0.6054,0,-0.6975,-0.6924,-0.6868,-0.6786,-0.6737,-0.6703,-0.6634,-0.6595,-0.6538,-0.6474,-0.6418,-0.6342,-0.6277,-0.6202,-0.6131,-0.6103,-0.6082,-0.6087,-0.6088,-0.6078,-0.6065,-0.6077,-0.6106,-0.6106,-0.6106,-0.6106,-0.6106,-0.6106,-0.6976,-0.692,-0.6879,-0.6796,-0.6745,-0.6681,-0.6645,-0.6594,-0.6542,-0.6461,-0.6406,-0.6359,-0.629,-0.6214,-0.6152,-0.6132,-0.6109,-0.612,-0.6094,-0.6083,-0.6079,-0.6075,-0.6085,-0.6115,-0.6115,-0.611,-0.611,-0.611]},{"header":{"parameterUnit":"m.s-1","parameterCategory":1,"la1":30.2991,"la2":30.254,"lo1":-89.0895,"lo2":-89.0444,"dy":0.0017,"dx":0.0017,"nx":28,"ny":28,"refTime":"2025-05-18T21:00:00:Z","depth":0,"parameterNumber":3,"parameterNumberName":"V-component_of_WINDS"},"data":[0,0,0,0,0,0,0,0,0,0,0,0,0,0,0,0,0,0,0,0,0,0,0,0,0,0,0,0,0,0,0,0,0,0,0,0,0,0,0,0,0,0,0,0,0,0,0,0,0,0,0,0,0,0,0,0,0,0,4.0684,4.0684,0,4.065,4.065,4.065,4.0596,4.0595,4.0594,4.0593,4.0557,4.0557,4.0557,0,0,0,0,0,0,0,0,0,0,0,0,0,4.0703,4.0703,4.0684,4.0684,4.0683,4.065,4.065,4.0649,4.0596,4.0594,4.0593,4.0592,4.0557,4.0557,4.0557,0,0,0,0,0,0,0,0,0,0,0,0,0,4.0684,4.0702,4.0684,4.0653,4.0649,4.065,4.065,4.0649,4.0596,4.0594,4.0593,4.0592,4.0557,4.0557,4.0557,4.0587,0,0,4.0557,4.0557,0,0,0,0,0,0,0,0,4.0685,4.0684,4.0658,4.0655,4.0651,4.0626,4.0643,4.0628,4.0596,4.0616,4.0593,4.0591,4.0581,4.0579,4.0576,4.0585,4.0583,4.0557,4.0557,4.0557,4.0557,0,0,0,0,0,0,0,4.0687,4.0685,4.0671,4.0657,4.0653,4.064,4.0636,4.064,4.0607,4.0614,4.061,4.0607,4.0579,4.0576,4.0575,4.0583,4.0557,4.0557,4.0557,4.0557,4.0615,4.0616,0,0,0,0,0,0,4.0693,4.0686,4.0672,4.067,4.0665,4.0641,4.0636,4.0635,4.0607,4.0602,4.0608,4.0605,4.0577,4.0575,4.0573,4.0606,4.0557,4.0557,4.0557,4.0613,4.0615,4.0617,0,0,0,0,0,0,4.0693,4.0692,4.0673,4.0677,4.0673,4.0642,4.0642,4.0635,4.0632,4.0603,4.0597,4.0611,4.0576,4.0573,4.0584,4.0604,4.0557,4.0557,4.0611,4.0614,4.0616,4.0672,0,0,0,0,0,0,4.0694,4.0692,4.0703,4.0678,4.0674,4.0685,4.0643,4.0636,4.0632,4.0627,4.0604,4.0599,4.0574,4.0584,4.0584,4.0603,4.0557,4.061,4.0613,4.0615,4.0668,4.0676,4.0683,0,0,0,0,0,4.0695,4.072,4.0704,4.0703,4.0686,4.0686,4.0683,4.0655,4.0634,4.0645,4.0626,4.0599,4.0602,4.0586,4.0585,4.0605,4.0608,4.0612,4.0615,4.0665,4.0675,4.0683,0,0,0,0,0,0,4.0748,4.0716,4.0698,4.0715,4.0704,4.0677,4.0689,4.0666,4.066,4.0655,4.0621,4.0616,4.0631,4.0619,4.0601,4.0632,4.0601,4.0605,4.0639,4.0648,4.0655,4.0658,4.0557,0,0,0,0,0,4.0762,4.0765,4.0736,4.0754,4.075,4.0721,4.0719,4.0699,4.0685,4.068,4.0662,4.065,4.0648,4.0647,4.0644,4.0666,4.0661,4.0679,4.0687,4.0693,4.0696,4.0708,4.0716,4.0628,4.0628,4.0628,0,0,4.0791,4.0774,4.0777,4.0765,4.0753,4.0757,4.0717,4.0722,4.0724,4.068,4.069,4.0676,4.066,4.0677,4.0683,4.0667,4.0719,4.0697,4.0702,4.0702,4.0713,4.0721,4.0728,4.0631,4.063,4.063,0,0,4.0845,4.0832,4.0846,4.0836,4.0819,4.08,4.0803,4.078,4.0769,4.0778,4.0745,4.0747,4.0745,4.0735,4.073,4.0781,4.0757,4.0781,4.0819,4.0831,4.0838,4.0844,4.0863,4.087,4.0785,4.0785,4.0785,0,4.0883,4.0887,4.0856,4.0864,4.0859,4.0821,4.0835,4.0826,4.0809,4.0807,4.079,4.0786,4.0773,4.0787,4.08,4.0797,4.08,4.0784,4.0839,4.0845,4.085,4.0868,4.0875,4.0788,4.0788,4.0787,4.0787,0,4.0934,4.0937,4.0951,4.0936,4.0933,4.0944,4.0916,4.0916,4.0896,4.0879,4.0889,4.0871,4.0864,4.0866,4.0846,4.0878,4.0869,4.0846,4.0814,4.0862,4.0878,4.0885,4.0792,4.0791,4.079,4.079,0,0,4.1021,4.099,4.0995,4.0988,4.0967,4.0969,4.0979,4.0972,4.0974,4.0963,4.0971,4.097,4.0949,4.0943,4.0921,4.0932,4.0975,4.0907,4.0907,4.0921,4.101,4.1028,4.1036,4.0958,4.0959,4.096,4.1011,0,4.1071,4.1085,4.1059,4.1079,4.1082,4.1046,4.1054,4.1042,4.1026,4.1027,4.1009,4.1009,4.0981,4.0977,4.0986,4.0968,4.0992,4.0964,4.0965,4.0965,4.0971,4.1044,4.1063,4.1111,4.1017,4.1018,4.1019,0,4.1131,4.1125,4.1146,4.1124,4.1125,4.1132,4.1125,4.1125,4.1111,4.1099,4.1093,4.1068,4.1076,4.1046,4.1057,4.1038,4.1037,4.1028,4.1029,4.1029,4.0995,4.1046,4.1126,4.1134,4.1028,4.1028,4.1027,0,4.1193,4.119,4.1202,4.1197,4.1172,4.1179,4.1169,4.1153,4.1151,4.1144,4.1143,4.1137,4.1134,4.113,4.1104,4.1084,4.1119,4.1086,4.1109,4.111,4.1118,4.1118,4.12,4.1117,4.1117,4.1117,4.1116,0,4.1252,4.1267,4.1229,4.1237,4.1252,4.1222,4.1238,4.1224,4.1211,4.1215,4.1183,4.1188,4.1154,4.1156,4.1136,4.1148,4.1147,4.1137,4.1132,4.1141,4.1142,4.114,4.1136,4.1118,4.1118,4.1118,4.1117,0,4.1324,4.13,4.1311,4.1286,4.1281,4.1293,4.1273,4.1279,4.1261,4.1267,4.1267,4.124,4.124,4.1214,4.1208,4.1195,4.1216,4.1204,4.1221,4.1218,4.1243,4.1241,4.1326,4.1336,4.1247,4.1248,4.1248,0,4.1364,4.1374,4.1351,4.1352,4.1344,4.1345,4.1343,4.1314,4.1313,4.1298,4.1306,4.1304,4.13,4.1302,4.1282,4.1278,4.1266,4.1296,4.1265,4.1274,4.1267,4.1267,4.1268,4.1303,4.1304,4.1305,4.1306,0,4.1437,4.1424,4.1422,4.1417,4.1415,4.1409,4.1401,4.1404,4.1371,4.1372,4.1372,4.1369,4.1364,4.1363,4.1355,4.1344,4.132,4.1316,4.1321,4.133,4.134,4.1336,4.124,4.1314,4.1313,4.1313,4.1312,4.1312,4.1494,4.1502,4.1487,4.1486,4.1477,4.1471,4.1476,4.1459,4.1458,4.1452,4.1435,4.1438,4.1424,4.1411,4.1403,4.1405,4.139,4.1398,4.14,4.1402,4.1407,4.1339,4.1404,4.1403,4.1403,4.1403,4.1403,0,4.1566,4.1555,4.1554,4.1544,4.1544,4.1521,4.1511,4.1513,4.1516,4.1505,4.1503,4.1503,4.1501,4.1481,4.1477,4.1483,4.1472,4.1483,4.1482,4.1481,4.1421,4.1417,4.1492,4.1492,4.1492,4.1492,4.1492,4.1492,4.1603,4.1616,4.1602,4.1609,4.1598,4.1601,4.1597,4.1591,4.1583,4.1585,4.1583,4.157,4.1556,4.1551,4.1548,4.1542,4.1543,4.1558,4.1549,4.1493,4.1485,4.1476,4.1473,4.1558,4.1558,4.1608,4.1609,4.1609]}]]